Starlink 33664

operational
NORAD ID: 63415 Int'l Des: 2025-065 Owner: SPXS Country: US Constellation: starlink
LEOCIRCULAR

Starlink 33664について

説明を読み込み中...

リアルタイム位置

3D地球を読み込み中...

次回通過

高度履歴

Altitude vs Time

uPlot chart will show altitude changes over time

軌道要素

1 63415U 25065S 25301.23996214 .00026105 00000-0 95364-3 0 9998
2 63415 43.0051 135.0237 0000645 273.7252 86.3526 15.27620769 32581
Epoch: Oct 28, 2025 • Age: 39 hours

現在のステータス

高度 483.5 km
速度 7.63 km/s
衛星直下点 -7.35°S, 125.33°E
打ち上げ日 Mar 31, 2025
運用期間 0.5 years
タイプ internet

技術仕様

分類 Payload
質量 575.00 kg
乾燥質量 530.00 kg
総質量 575.00 kg
長さ 0.30 m
直径 4.10 m
スパン 29.00 m
形状 Box + pan
製造者 SPXS
バスタイプ Starlink V2MO
フェーズステータス In Orbit
所有者/国 SPXS/US

大規模コンステレーション

Loading constellations...